Regional Weather Roundup
Issued by NWS

Home | Current Version | Previous Version | Text Only | Print | Product List | Glossary Off
Versions: 1 2 3 4 5 6 7 8 9 10 11 12 13 14 15 16 17 18 19 20 21 22 23 24 25 26 27 28 29 30 31 32 33 34 35 36 37 38 39 40 41 42 43 44 45 46 47 48 49 50

411
ASUS43 KIND 231209
RWRIN

WEATHER ROUNDUP FOR INDIANA
NATIONAL WEATHER SERVICE INDIANAPOLIS IN
800 AM EDT MON APR 23 2018

NOTE: "FAIR" INDICATES FEW OR NO CLOUDS BELOW 12,000 FEET WITH NO
SIGNIFICANT WEATHER AND/OR OBSTRUCTIONS TO VISIBILITY.

* - STATION DOES NOT REPORT WEATHER SUCH AS PRECIPITATION OR FOG.

+ - STATION NOT QUALITY CONTROLLED BY THE NATIONAL WEATHER SERVICE.
    USE DATA WITH CAUTION...ESPECIALLY DEWPOINT AND RELATIVE
    HUMIDITY OBSERVATIONS.

INZ001>003-010>013-019-020-231300-
NORTHWEST INDIANA

CITY           SKY/WX    TMP DP  RH WIND       PRES   REMARKS
GARY /AIRPORT/ CLOUDY    45  32  61 NE10      30.21R
KNOX *+        FAIR      43  30  61 NE6       30.17S
LA PORTE +     FAIR      45  25  46 NE9       30.20R
6HR MIN TEMP:  40; 6HR MAX TEMP:  45;

MICHIGAN CITY+ FAIR      43  27  52 NE5       30.21R
MONTICELLO +   FAIR      45  27  49 E5        30.15R
6HR MIN TEMP:  44; 6HR MAX TEMP:  48;

RENSSELAER +   FAIR      46  19  34 NE12      30.15S
VALPARAISO     FAIR      46  28  49 NE9       30.18S
6HR MIN TEMP:  40; 6HR MAX TEMP:  46;


$$

LMZ046-743>745-231300-
SOUTHERN LAKE MICHIGAN

STATION/POSITION TIME  TEMP    WIND        PRES    WAVE
                       AIR SEA DIR/SP/G            HT
                 (UTC) (F)     (DEG/KT/KT) (MB)    (FT)
BURNS HARBOR     1200   43      70/  9/ 11 1023.0
MICHIGAN CITY    1140   43      40/ 11/ 11   N/A

$$

INZ004-005-014>016-021>024-231300-
NORTH CENTRAL INDIANA

CITY           SKY/WX    TMP DP  RH WIND       PRES   REMARKS
ELKHART        FAIR      45  25  45 NE8       30.20S
GOSHEN         FAIR      43  27  53 NE5       30.20R
6HR MIN TEMP:  39; 6HR MAX TEMP:  44;

LOGANSPORT +   FAIR      45  30  57 NE8       30.16R
PERU/GRISSOM   PTSUNNY   46  27  46 NE12      30.14R
ROCHESTER +    FAIR      45  30  57 NE6       30.17S
SOUTH BEND     FAIR      45  24  43 NE7       30.21R
6HR MIN TEMP:  41; 6HR MAX TEMP:  47;

WARSAW +       FAIR      43  30  61 E8        30.19S

$$

INZ006>009-017-018-025>027-231300-
NORTHEAST INDIANA

CITY           SKY/WX    TMP DP  RH WIND       PRES   REMARKS
AUBURN +       FAIR      41  32  70 E8        30.21R
FORT WAYNE     PTSUNNY   43  32  65 NE12      30.19R
6HR MIN TEMP:  39; 6HR MAX TEMP:  44;

HUNTINGTON +   FAIR      42  30  62 NE7       30.17S
6HR MIN TEMP:  40; 6HR MAX TEMP:  44;


$$

INZ028-029-035-036-043>045-051>053-231300-
WEST CENTRAL INDIANA

CITY           SKY/WX    TMP DP  RH WIND       PRES   REMARKS
CRAWFORDSVL +  PTSUNNY   45  32  60 NE9       30.11R
6HR MIN TEMP:  42; 6HR MAX TEMP:  46;

GREENCASTLE +  CLOUDY    50  32  50 E8        30.10R
LAFAYETTE      FAIR      46  30  53 NE9       30.13R
6HR MIN TEMP:  45; 6HR MAX TEMP:  48;

TERRE HAUTE    LGT RAIN  49  42  77 E6        30.08R
6HR MIN TEMP:  49; 6HR MAX TEMP:  57; 6HR PCP:  0.01;


$$

INZ030>032-037>040-046>048-054>057-064-065-231300-
CENTRAL INDIANA

CITY           SKY/WX    TMP DP  RH WIND       PRES   REMARKS
COLUMBUS       CLOUDY    50 N/A N/A CALM      30.10R
FISHERS *+     FAIR      45  36  70 CALM      30.13
FRANKFORT +    FAIR      47  32  56 E13       30.14S
6HR MIN TEMP:  46; 6HR MAX TEMP:  50;

GREENWOOD *+   CLOUDY    51  34  52 E6        30.11R
INDIANAPOLIS   CLOUDY    51  32  48 NE7       30.11R
6HR MIN TEMP:  49; 6HR MAX TEMP:  52;

-EAGLE CREEK   CLOUDY    49  31  49 E6        30.11R
6HR MIN TEMP:  47; 6HR MAX TEMP:  50;

KOKOMO +       FAIR      44  31  60 E10       30.16R
6HR MIN TEMP:  41; 6HR MAX TEMP:  45;

MARION +       FAIR      43  30  59 E10       30.16R
MT COMFORT *+  FAIR      46  39  76 NE7       30.12R
SHELBYVILLE    CLOUDY    53  35  50 E8        30.10R
6HR MIN TEMP:  50; 6HR MAX TEMP:  53;

ZIONSVILLE +   FAIR      45  31  58 E9        30.13R
6HR MIN TEMP:  43; 6HR MAX TEMP:  46;


$$

INZ033-034-041-042-049-050-058-059-231300-
EAST CENTRAL INDIANA

CITY           SKY/WX    TMP DP  RH WIND       PRES   REMARKS
MUNCIE         FAIR      46  32  58 E7        30.14S
6HR MIN TEMP:  42; 6HR MAX TEMP:  48;

RICHMOND +     FAIR      46  36  66 E10       30.13R

$$

INZ060-061-067>069-081>083-085>088-231300-
SOUTHWEST INDIANA

CITY           SKY/WX    TMP DP  RH WIND       PRES   REMARKS
EVANSVILLE     CLOUDY    54  53  97 E14G23    29.95R
6HR MIN TEMP:  50; 6HR MAX TEMP:  55; 6HR PCP:  0.40;

HUNTINGBURG +  CLOUDY    53  51  93 E13       29.99R
6HR MIN TEMP:  50; 6HR MAX TEMP:  60; 6HR PCP:  0.35;

WASHINGTON +   RAIN      50  46  87 NE12      30.02S
6HR MIN TEMP:  49; 6HR MAX TEMP:  59; 6HR PCP:  0.17;


$$

INZ062-063-066-070>080-084-089>092-231300-
SOUTH CENTRAL AND SOUTHEAST INDIANA

CITY           SKY/WX    TMP DP  RH WIND       PRES   REMARKS
BATESVILLE +   SUNNY     50  34  53 MISG      30.11R
BEDFORD +      RAIN      48  45  87 E10       30.06R
BLOOMINGTON    LGT RAIN  49  43  80 E8        30.08R
6HR MIN TEMP:  49; 6HR MAX TEMP:  60; 6HR PCP:  0.10;

FRENCH LICK *+ CLOUDY    50 N/A N/A NE10      30.03S
MADISON *+     CLOUDY    50  43  76 E8        30.10S
NORTH VERNON + LGT RAIN  50  41  71 E5        30.10R
SEYMOUR +      LGT RAIN  50  46  87 NE5       30.08R

$$





USA.gov is the U.S. government's official web portal to all federal, state and local government web resources and services.